Tuxtla Gutierrez, Mexico

8:15 AM CDT on April 25, 2017 (GMT -0500)
Francisco Sarabia

Weather History for MMTG - May, 2013

Change the Weather History Date:

Tuesday, May 14, 2013

  Actual Average Record
Temperature  
Mean Temperature 80 °F -  
Max Temperature 90 °F 82 °F 105 °F (2008)
Min Temperature 71 °F 65 °F 62 °F (2000)
Cooling Degree Days 16    
Growing Degree Days 30 (Base 50)    
Moisture  
Dew Point 64 °F    
Average Humidity 52    
Maximum Humidity 88    
Minimum Humidity 28    
Precipitation  
Precipitation 0.00 in - - ()
Sea Level Pressure  
Sea Level Pressure 29.95 in    
Wind  
Wind Speed 6 mph ()    
Max Wind Speed 21 mph    
Max Gust Speed 28 mph    
Visibility 7.6 miles    
Events      
Averages and records for this station are not official NWS values.
T = Trace of Precipitation, MM = Missing Value Source: Averaged Metar Reports

Daily Weather History Graph

Daily Weather History Graph

Search for Another Location

Airport or City:

Trip Planner

Search our weather history database for the weather conditions in past years. The results will help you decide how hot, cold, wet, or windy it might be!

Date:

Astronomy

May. 14, 2013 Rise Set
Actual Time 6:41 AM CDT 7:36 PM CDT
Civil Twilight 6:18 AM CDT 7:59 PM CDT
Nautical Twilight 5:51 AM CDT 8:26 PM CDT
Astronomical Twilight 5:23 AM CDT 8:54 PM CDT
Moon 10:20 AM CDT (5/14) 11:28 PM CDT (5/14)
Length of Visible Light 13h 40m
Length of Day
12h 54m
Waxing Crescent, 19% of the Moon is Illuminated
May 14
Waxing Crescent
May 17
First Quarter
May 24
Full
May 31
Last Quarter
Jun 8
New

Hourly Weather History & Observations

Time (CDT) Temp. Heat Index Dew Point Humidity Pressure Visibility Wind Dir Wind Speed Gust Speed Precip Events Conditions
12:45 AM 74 °F - 69 °F 78% 29.96 in 9 mi NW 8.9 mph - -  
3:55 AM 74 °F - 71 °F 88% 30.00 in 9 mi SW 4.5 mph - -   Scattered Clouds
5:57 AM 75.2 °F - 64.4 °F 69% 30.03 in 6.0 mi NW 4.6 mph - N/A   Scattered Clouds
6:45 AM 75 °F - 67 °F 68% 29.95 in 9 mi North 4.5 mph - -   Clear
6:48 AM 71.6 °F - 62.6 °F 73% 29.93 in 7.0 mi Calm Calm - N/A   Clear
7:40 AM 73.4 °F - 60.8 °F 65% 30.05 in 7.0 mi SE 4.6 mph - N/A   Clear
8:42 AM 78.8 °F - 64.4 °F 61% 30.07 in 7.0 mi NNW 8.1 mph - N/A   Scattered Clouds
9:38 AM 82 °F - 69 °F 57% 29.98 in 9 mi NW 4.5 mph - -   Clear
9:42 AM 82.4 °F 83.4 °F 62.6 °F 51% 29.96 in 7.0 mi NNW 6.9 mph - N/A   Mostly Cloudy
10:40 AM 84.2 °F 84.4 °F 60.8 °F 45% 30.07 in 7.0 mi Calm Calm - N/A   Mostly Cloudy
11:51 AM 89.6 °F 88.1 °F 57.2 °F 33% 30.03 in 7.0 mi NW 4.6 mph - N/A   Mostly Cloudy
12:38 PM 87 °F - 68 °F 43% 29.92 in 9 mi NW 4.5 mph - -   Scattered Clouds
12:49 PM 91.4 °F 89.1 °F 53.6 °F 28% 29.88 in 7.0 mi WNW 6.9 mph - N/A   Mostly Cloudy
1:49 PM 91.4 °F 89.4 °F 55.4 °F 29% 29.96 in 7.0 mi NW 9.2 mph - N/A   Mostly Cloudy
2:42 PM 95.0 °F 94.4 °F 59.0 °F 30% 29.94 in 7.0 mi NNW 12.7 mph - N/A   Mostly Cloudy
3:38 PM 90 °F - 74 °F 51% 29.84 in 9 mi NW 4.5 mph - -   Scattered Clouds
3:42 PM 91.4 °F 92.1 °F 62.6 °F 38% 29.80 in 7.0 mi WNW 16.1 mph - N/A   Mostly Cloudy
4:47 PM 91.4 °F 93.2 °F 64.4 °F 41% 29.91 in 5.0 mi WNW 13.8 mph 25.3 mph N/A   Scattered Clouds
5:52 PM 89.6 °F 90.1 °F 62.6 °F 40% 29.91 in 6.0 mi NW 16.1 mph 27.6 mph N/A   Scattered Clouds
6:39 PM 84 °F - 71 °F 57% 29.82 in 9 mi NNW 6.7 mph - -   Scattered Clouds
6:49 PM 86.0 °F 86.6 °F 62.6 °F 45% 29.82 in 7.0 mi WNW 20.7 mph - N/A   Scattered Clouds
7:41 PM 84.2 °F 85.0 °F 62.6 °F 48% 29.96 in 7.0 mi WNW 11.5 mph 23.0 mph N/A   Scattered Clouds
8:49 PM 82.4 °F 83.4 °F 62.6 °F 51% 29.99 in 8.0 mi WNW 9.2 mph - N/A   Clear
9:36 PM 80 °F - 68 °F 58% 29.90 in 9 mi North 2.2 mph - -  
9:51 PM 80.6 °F 81.5 °F 60.8 °F 51% 29.92 in 8.0 mi Calm Calm - N/A   Clear
10:50 PM 78.8 °F - 60.8 °F 54% 30.06 in 8.0 mi WSW 3.5 mph - N/A   Clear
11:48 PM 77.0 °F - 60.8 °F 57% 30.07 in 8.0 mi Calm Calm - N/A   Clear